Location: Gleizolles
(44.4833°N, 6.7667°E)
Time: 20:01:16
(UTC+00:00)

N. Korean satellite - Pass Details

Date: 09 December 2021
Orbit: 447 x 490 km, 97.3° (Epoch: 28 January)

Event Time Altitude Azimuth Distance (km) Brightness Sun altitude
Rises 04:01:26 0° 27° (NNE) 2,459 10.4 -30.5°
Reaches altitude 10° 04:03:54 10° 46° (NE) 1,581 9.6 -30.0°
Maximum altitude 04:06:23 19° 94° (E) 1,134 9.1 -29.6°
Drops below altitude 10° 04:08:52 10° 141° (SE) 1,575 9.6 -29.1°
Sets 04:11:19 0° 160° (SSE) 2,445 10.4 -28.7°
